LAOSAT 1

Last updated on Tue Sep 22 2026 00:03:13 GMT+0000 (Coordinated Universal Time)

1 41034U 15067A 26264.49766637 -.00000347 00000+0 00000+0 0 9992 2 41034 0.0449 355.2924 0002295 123.8720 188.8940 1.00270076 39825
UTC large
Height (km)
Speed (km/s)
/
Latitude / Longitude
Inclination (degrees)
Orbital Period (minutes)
Azimuth
Elevation
Range (km)
Doppler Factor

Next 0 passes for location: London (51.5072 / 0.1276)

No passes found over London.
LAOSAT 1